• MPC Preparation (Info)

  • MPEC 2010-G89 : 2010 GO33

    The following Minor Planet Electronic Circular may be linked-to from your own Web pages, but must not otherwise be redistributed electronically.

    A form allowing access to any MPEC is at the bottom of this page.


    Read MPEC 2010-G88 Read MPEC 2010-G90


    M.P.E.C. 2010-G89                                Issued 2010 Apr. 12, 11:25 UT
    
         The Minor Planet Electronic Circulars contain information on unusual
             minor planets and routine data on comets.  They are published
       on behalf of Commission 20 of the International Astronomical Union by the
              Minor Planet Center, Smithsonian Astrophysical Observatory,
                              Cambridge, MA 02138, U.S.A.
    
                 Prepared using the Tamkin Foundation Computer Network
    
                                  MPC@CFA.HARVARD.EDU
           URL https://www.minorplanetcenter.org/iau/mpc.html  ISSN 1523-6714
    
                                       2010 GO33
    
    Observations:
         K10G33O* C2010 04 11.18277 12 48 06.19 +38 06 40.3          20.3 V EG089703
         K10G33O  C2010 04 11.18968 12 48 05.29 +38 06 57.6          20.4 V EG089703
         K10G33O  C2010 04 11.19660 12 48 04.57 +38 07 15.3          19.5 V EG089703
         K10G33O  C2010 04 11.20347 12 48 03.67 +38 07 32.3          19.2 V EG089703
         K10G33O  C2010 04 11.23845 12 47 59.40 +38 09 01.5          19.5 R EG089H01
         K10G33O  C2010 04 11.24494 12 47 58.60 +38 09 18.4          19.7 R EG089H01
         K10G33O  C2010 04 11.25236 12 47 57.68 +38 09 36.6          19.6 R EG089H01
         K10G33O  C2010 04 11.25951 12 47 56.84 +38 09 54.9          19.8 R EG089H01
         K10G33O  C2010 04 11.26954 12 47 55.68 +38 10 19.3          19.1 V EG089703
         K10G33O  C2010 04 11.27705 12 47 54.74 +38 10 39.9          20.2 V EG089703
         K10G33O  C2010 04 11.28481 12 47 53.73 +38 10 59.1          19.5 V EG089703
         K10G33O  C2010 04 11.29293 12 47 52.83 +38 11 20.1          20.2 V EG089703
         K10G33O  C2010 04 11.35672312 47 44.77 +38 13 56.3          20.2 V EG089H21
         K10G33O  C2010 04 11.36215012 47 44.09 +38 14 10.3          19.6 V EG089H21
         K10G33O  C2010 04 11.36756112 47 43.44 +38 14 23.3          19.9 V EG089H21
         K10G33O  C2010 04 11.47036 12 47 31.42 +38 18 43.3          20.2 R EG089926
         K10G33O  C2010 04 11.47375 12 47 31.03 +38 18 51.0          20.1 R EG089926
         K10G33O  C2010 04 11.47715 12 47 30.53 +38 19 00.3          20.6 R EG089926
         K10G33O KC2010 04 11.83948 12 46 49.96 +38 34 10.4          19.8 V EG089A74
         K10G33O KC2010 04 11.85033 12 46 48.59 +38 34 38.2          20.1 V EG089A74
         K10G33O KC2010 04 11.86191 12 46 47.15 +38 35 08.3          19.9 V EG089A74
         K10G33O KC2010 04 11.87516 12 46 45.51 +38 35 42.6                 EG089118
         K10G33O KC2010 04 11.87965 12 46 44.96 +38 35 53.2                 EG089118
         K10G33O KC2010 04 11.88415 12 46 44.37 +38 36 05.2                 EG089118
         K10G33O KC2010 04 11.88865 12 46 43.81 +38 36 16.7                 EG089118
         K10G33O FC2010 04 12.04791 12 46 24.34 +38 42 55.9          19.6 R EG089473
         K10G33O FC2010 04 12.06041 12 46 22.83 +38 43 27.0          19.6 R EG089473
         K10G33O  C2010 04 12.16453 12 46 11.86 +38 47 52.0          19.8 R EG089H01
         K10G33O  C2010 04 12.17215 12 46 10.95 +38 48 12.0          20.3 V EG089H11
         K10G33O  C2010 04 12.17315 12 46 10.79 +38 48 13.9          19.5 R EG089H01
         K10G33O  C2010 04 12.17429 12 46 10.62 +38 48 17.6          20.6 V EG089H11
         K10G33O  C2010 04 12.18171 12 46 09.73 +38 48 35.7          19.6 R EG089H01
         K10G33O  C2010 04 12.19261 12 46 08.38 +38 49 03.4          19.6 R EG089H01
         K10G33O KC2010 04 12.21228 12 46 05.84 +38 49 51.8          20.1 R EG089H36
         K10G33O KC2010 04 12.21971 12 46 04.78 +38 50 11.0          19.8 R EG089H36
         K10G33O KC2010 04 12.22640 12 46 03.92 +38 50 27.6          19.7 R EG089H36
         K10G33O  C2010 04 12.22815112 46 03.60 +38 50 32.1          19.9 V EG089H21
         K10G33O  C2010 04 12.23557212 46 02.67 +38 50 50.5          20.0 V EG089H21
         K10G33O  C2010 04 12.24266312 46 01.72 +38 51 08.0                 EG089H21
         K10G33O  C2010 04 12.30230 12 45 54.68 +38 53 39.8          20.3 V EG089G96
         K10G33O  C2010 04 12.30890 12 45 53.89 +38 53 56.2          20.3 V EG089G96
         K10G33O  C2010 04 12.31559 12 45 53.06 +38 54 12.9          20.3 V EG089G96
         K10G33O  C2010 04 12.32222 12 45 52.20 +38 54 29.5          19.6 V EG089G96
    
    Observer details:
    118 Modra.  Observer J. Vilagi.  0.6-m f/5.5 reflector + CCD.
    473 Remanzacco.  Observers L. Donato, V. Gonano, E. Guido, G. Sostero.  0.45-m
        f/4.4 Newtonian reflector + CCD.
    703 Catalina Sky Survey.  Observer E. Beshore.  Measurers J. D. Ahern,
        E. C. Beshore, A. Boattini, G. J. Garradd, A. R. Gibbs, A. D. Grauer,
        R. E. Hill, R. A. Kowalski, S. M. Larson, R. H. McNaught.  0.68-m Schmidt
        + CCD.
    926 Tenagra II Observatory.  Observers P. R. Holvorcem, M. Schwartz.  Measurer
        P. R. Holvorcem.  0.81-m f/7 Ritchey-Chretien + CCD.
    A74 Bergen-Enkheim Observatory.  Observer U. Suessenberger.  0.4-m f/4
        reflector + CCD.
    G96 Mt. Lemmon Survey.  Observer S. M. Larson.  Measurers J. D. Ahern,
        E. C. Beshore, A. Boattini, G. J. Garradd, A. R. Gibbs, A. D. Grauer,
        R. E. Hill, R. A. Kowalski, S. M. Larson, R. H. McNaught.  1.5-m reflector
        + CCD.
    H01 Magdalena Ridge Observatory, Socorro.  Observers W. H. Ryan, E. V. Ryan.
        Measurer W. H. Ryan.  2.4-m f/8.9 reflector + CCD.
    H11 LightBuckets Observatory, Rodeo.  Observer T. Vorobjov.  0.61-m f/8
        Ritchey-Chretien + CCD.
    H21 Astronomical Research Observatory, Westfield.  Observer R. Holmes.
        Measurer S. Foglia.
    H36 Sandlot Observatory, Scranton.  Observer G. Hug.  0.56-m reflector + CCD.
    
    Orbital elements:
    2010 GO33                                                Earth MOID = 0.1952 AU
    Epoch 2010 July 23.0 TT = JDT 2455400.5                 MPC
    M   4.28941              (2000.0)            P               Q
    n   0.26584693     Peri.  153.40496     +0.47593887     +0.85783413
    a   2.3954197      Node   144.05861     -0.85424559     +0.50334327
    e   0.6976552      Incl.   19.29137     -0.20915704     -0.10376012
    P   3.71           H   19.1           G   0.15           U   9
    Residuals in seconds of arc
    100411 703  0.5+  0.2+    100411 926  1.0+  0.2+    100412 H11  0.3-  0.3+
    100411 703  0.3-  0.1-    100411 926  1.1+  0.5-    100412 H01  0.5+  0.0
    100411 703  1.1+  0.1-    100411 926  0.0   0.4+    100412 H01  0.5+  0.0
    100411 703  0.2+  0.6-    100411 A74  0.7+  0.8-    100412 H36  2.0+  0.6-
    100411 H01  0.6+  0.2-    100411 A74  0.1+  0.6-    100412 H36  0.4+  0.1-
    100411 H01  0.5+  0.2+    100411 A74  0.3-  0.2+    100412 H36  0.1+  0.3-
    100411 H01  0.3+  0.4-    100411 118  0.5+  0.1+    100412 H21  0.5+  0.0
    100411 H01  0.6+  0.2-    100411 118  0.5+  0.7-    100412 H21  0.5+  0.2-
    100411 703  0.5+  1.5-    100411 118  0.0   0.1-    100412 H21  0.3-  0.5-
    100411 703  0.2+  0.1+    100411 118  0.1-  0.1+    100412 G96  0.1-  0.2-
    100411 703  0.5-  0.3-    100412 473  0.2+  0.4-    100412 G96  0.3+  0.3-
    100411 703  0.5+  0.2+    100412 473  0.4+  0.4-    100412 G96  0.5+  0.3-
    100411 H21  0.4+  0.4-    100412 H01  0.6+  0.1-    100412 G96  0.1+  0.2-
    100411 H21  0.0   0.1+    100412 H11  0.4+  0.2+
    100411 H21  0.1-  0.4-    100412 H01  0.5+  0.1-
    
    Ephemeris:
    2010 GO33                a,e,i = 2.40, 0.70, 19                  q = 0.7242
    Date    TT    R. A. (2000) Decl.     Delta      r     Elong.  Phase     V
    2010 04 04    13 00.32   +33 01.2    0.630    1.543   141.4    23.8    20.2
    2010 04 14    12 42.48   +40 04.1    0.574    1.438   129.6    32.5    20.1
    2010 04 24    12 19.23   +46 33.3    0.536    1.332   116.1    42.7    20.0
    2010 05 04    11 51.76   +52 03.3    0.507    1.224   102.6    53.5    20.0
    2010 05 14    11 20.55   +56 36.2    0.481    1.116    89.6    64.9    20.0
    2010 05 24    10 42.67   +60 33.6    0.450    1.011    76.9    77.4    20.1
    2010 06 03    09 46.24   +64 04.6    0.412    0.912    63.9    92.1    20.2
    2010 06 13    08 09.75   +65 23.3    0.374    0.826    49.8   109.9    20.7
    2010 06 23    06 11.81   +59 14.0    0.350    0.761    35.8   128.6    21.8
    2010 07 03    05 02.28   +44 53.9    0.364    0.727    30.6   134.6    22.4
    2010 07 13    04 41.27   +30 08.5    0.424    0.732    38.2   120.8    21.5
    2010 07 23    04 43.68   +19 28.8    0.512    0.773    47.9   102.6    20.8
    2010 08 02    04 55.30   +12 24.7    0.604    0.843    56.1    87.4    20.7
    2010 08 12    05 09.31   +07 27.0    0.687    0.933    63.2    75.7    20.8
    2010 08 22    05 22.40   +03 35.4    0.756    1.034    69.9    66.7    20.9
    2010 09 01    05 33.03   +00 16.8    0.808    1.140    76.8    59.5    21.1
    2010 09 11    05 40.24   -02 45.5    0.847    1.248    84.2    53.4    21.2
    2010 09 21    05 43.33   -05 38.8    0.874    1.356    92.2    47.7    21.3
    2010 10 01    05 41.84   -08 23.6    0.893    1.462   100.9    42.3    21.3
    2010 10 11    05 35.38   -10 55.6    0.910    1.567   110.2    36.7    21.4
    2010 10 21    05 23.99   -13 05.0    0.931    1.668   120.0    31.1    21.4
    2010 10 31    05 08.37   -14 39.5    0.961    1.767   129.4    25.7    21.4
    2010 11 10    04 49.99   -15 27.4    1.008    1.863   137.6    21.0    21.5
    2010 11 20    04 31.00   -15 23.0    1.075    1.956   142.9    17.7    21.6
    2010 11 30    04 13.57   -14 30.1    1.165    2.046   143.9    16.5    21.9
    2010 12 10    03 59.24   -12 59.4    1.279    2.134   140.6    17.1    22.2
    
    Timothy B. Spahr             (C) Copyright 2010 MPC           M.P.E.C. 2010-G89
    

    Read MPEC 2010-G88 Read MPEC 2010-G90


    MPEC number:

    Enter an MPEC number in one of the following forms:

    • 1997-B01 (the full form)
    • J97B01 (the packed version of the full form)
    • B01 (the abbreviated form)